BFL5976 BIRK-BIHU

Flight info

Callsign BFL5976
Flight time 0h 43m
Altitude 21000
Route REKVA DCT AKI
Aircraft BE20/M-SDFGRWY/LB1

Departure

Time 2026-05-07 08:17
Airport Reykjavík Domestic Airport (BIRK)

Arrival

Time 2026-05-07 09:00
Airport Húsavík Airport (BIHU)
Time Latitude Longitude Altitude Speed Heading
2026-05-07 08:09 64.12920 -21.93385 43 ft 0 kts 356°
2026-05-07 08:13 64.12910 -21.93384 43 ft 4 kts 352°
2026-05-07 08:14 64.12901 -21.93365 43 ft 0 kts 266°
2026-05-07 08:14 64.12903 -21.93447 43 ft 12 kts 286°
2026-05-07 08:14 64.13003 -21.93567 43 ft 23 kts
2026-05-07 08:14 64.13148 -21.93554 44 ft 24 kts 352°
2026-05-07 08:15 64.13325 -21.93591 40 ft 23 kts 355°
2026-05-07 08:15 64.13464 -21.93626 33 ft 20 kts 354°
2026-05-07 08:15 64.13609 -21.93753 28 ft 18 kts 307°
2026-05-07 08:15 64.13629 -21.93864 30 ft 7 kts 257°
2026-05-07 08:16 64.13581 -21.93887 31 ft 13 kts 173°
2026-05-07 08:16 64.13549 -21.93879 32 ft 3 kts 173°
2026-05-07 08:16 64.13252 -21.93821 43 ft 81 kts 174°
2026-05-07 08:16 64.12486 -21.93687 140 ft 130 kts 173°
2026-05-07 08:17 64.11558 -21.93459 630 ft 140 kts 162°
2026-05-07 08:17 64.10853 -21.91966 1140 ft 146 kts 104°
2026-05-07 08:17 64.11004 -21.89694 1622 ft 157 kts 55°
2026-05-07 08:17 64.11943 -21.88340 2127 ft 168 kts 16°
2026-05-07 08:18 64.13088 -21.87753 2635 ft 169 kts 16°
2026-05-07 08:18 64.14191 -21.86845 3140 ft 168 kts 27°
2026-05-07 08:18 64.15181 -21.85440 3638 ft 168 kts 37°
2026-05-07 08:18 64.15982 -21.83527 4146 ft 167 kts 51°
2026-05-07 08:19 64.16639 -21.81322 4636 ft 168 kts 54°
2026-05-07 08:19 64.17276 -21.79061 5140 ft 170 kts 55°
2026-05-07 08:19 64.17917 -21.76783 5638 ft 170 kts 54°
2026-05-07 08:19 64.18563 -21.74506 6138 ft 171 kts 54°
2026-05-07 08:20 64.19211 -21.72212 6632 ft 172 kts 54°
2026-05-07 08:20 64.19865 -21.69899 7132 ft 173 kts 54°
2026-05-07 08:20 64.20523 -21.67567 7628 ft 174 kts 54°
2026-05-07 08:20 64.21185 -21.65220 8125 ft 176 kts 54°
2026-05-07 08:21 64.21852 -21.62850 8622 ft 177 kts 54°
2026-05-07 08:21 64.22524 -21.60467 9118 ft 179 kts 54°
2026-05-07 08:21 64.23196 -21.58069 9612 ft 178 kts 54°
2026-05-07 08:21 64.23865 -21.55689 10108 ft 181 kts 54°
2026-05-07 08:22 64.24550 -21.53261 10608 ft 182 kts 54°
2026-05-07 08:22 64.25238 -21.50794 11110 ft 184 kts 54°
2026-05-07 08:22 64.25929 -21.48321 11605 ft 184 kts 54°
2026-05-07 08:22 64.26626 -21.45833 12106 ft 185 kts 53°
2026-05-07 08:23 64.27324 -21.43331 12604 ft 186 kts 53°
2026-05-07 08:23 64.28028 -21.40802 13104 ft 189 kts 53°
2026-05-07 08:23 64.28737 -21.38252 13603 ft 189 kts 53°
2026-05-07 08:23 64.29450 -21.35694 14099 ft 190 kts 53°
2026-05-07 08:24 64.30163 -21.33131 14595 ft 190 kts 53°
2026-05-07 08:24 64.30871 -21.30554 15092 ft 190 kts 53°
2026-05-07 08:24 64.31587 -21.27976 15590 ft 192 kts 52°
2026-05-07 08:24 64.32311 -21.25383 16089 ft 193 kts 53°
2026-05-07 08:25 64.33030 -21.22783 16584 ft 191 kts 53°
2026-05-07 08:25 64.33745 -21.20197 17079 ft 192 kts 52°
2026-05-07 08:25 64.34462 -21.17597 17575 ft 193 kts 52°
2026-05-07 08:25 64.35182 -21.14987 18071 ft 193 kts 52°
2026-05-07 08:26 64.36619 -21.09763 19056 ft 193 kts 52°
2026-05-07 08:26 64.37330 -21.07177 19552 ft 193 kts 52°
2026-05-07 08:26 64.38048 -21.04558 20046 ft 192 kts 52°
2026-05-07 08:27 64.38760 -21.01962 20539 ft 191 kts 52°
2026-05-07 08:27 64.39468 -20.99376 21028 ft 190 kts 52°
2026-05-07 08:27 64.40195 -20.96730 21209 ft 205 kts 52°
2026-05-07 08:27 64.40996 -20.93812 21227 ft 224 kts 53°
2026-05-07 08:28 64.41851 -20.90665 21226 ft 238 kts 53°
2026-05-07 08:28 64.42748 -20.87358 21225 ft 247 kts 53°
2026-05-07 08:28 64.43675 -20.83942 21225 ft 253 kts 53°
2026-05-07 08:28 64.44801 -20.80839 21223 ft 251 kts 37°
2026-05-07 08:29 64.46136 -20.78200 21224 ft 254 kts 37°
2026-05-07 08:29 64.47482 -20.75506 21220 ft 257 kts 38°
2026-05-07 08:29 64.48836 -20.72788 21222 ft 258 kts 38°
2026-05-07 08:29 64.50196 -20.70058 21224 ft 259 kts 38°
2026-05-07 08:30 64.51566 -20.67311 21220 ft 260 kts 38°
2026-05-07 08:30 64.52931 -20.64565 21221 ft 260 kts 38°
2026-05-07 08:30 64.54300 -20.61809 21222 ft 261 kts 38°
2026-05-07 08:30 64.55672 -20.59043 21222 ft 261 kts 38°
2026-05-07 08:31 64.57026 -20.56308 21222 ft 261 kts 38°
2026-05-07 08:31 64.58399 -20.53532 21222 ft 261 kts 38°
2026-05-07 08:31 64.59765 -20.50760 21222 ft 260 kts 38°
2026-05-07 08:31 64.61134 -20.47995 21222 ft 261 kts 38°
2026-05-07 08:32 64.62503 -20.45219 21222 ft 261 kts 38°
2026-05-07 08:32 64.63870 -20.42436 21223 ft 261 kts 38°
2026-05-07 08:32 64.65240 -20.39644 21223 ft 261 kts 38°
2026-05-07 08:32 64.66611 -20.36850 21222 ft 262 kts 38°
2026-05-07 08:33 64.67986 -20.34045 21223 ft 263 kts 38°
2026-05-07 08:33 64.69359 -20.31237 21223 ft 263 kts 38°
2026-05-07 08:33 64.70736 -20.28418 21222 ft 263 kts 38°
2026-05-07 08:33 64.72115 -20.25592 21222 ft 263 kts 38°
2026-05-07 08:34 64.73494 -20.22761 21201 ft 264 kts 38°
2026-05-07 08:34 64.74873 -20.19923 21201 ft 263 kts 38°
2026-05-07 08:34 64.75785 -20.18048 21201 ft 263 kts 38°
2026-05-07 08:34 64.77159 -20.15218 21201 ft 263 kts 38°
2026-05-07 08:35 64.78532 -20.12384 21200 ft 263 kts 38°
2026-05-07 08:35 64.79903 -20.09551 21200 ft 263 kts 38°
2026-05-07 08:35 64.81274 -20.06712 21200 ft 262 kts 38°
2026-05-07 08:35 64.82643 -20.03877 21201 ft 263 kts 38°
2026-05-07 08:36 64.84010 -20.01040 21201 ft 262 kts 38°
2026-05-07 08:36 64.85380 -19.98192 21201 ft 263 kts 38°
2026-05-07 08:36 64.86747 -19.95347 21207 ft 263 kts 38°
2026-05-07 08:36 64.88117 -19.92492 21207 ft 263 kts 38°
2026-05-07 08:37 64.89483 -19.89640 21207 ft 263 kts 38°
2026-05-07 08:37 64.90852 -19.86781 21207 ft 263 kts 38°
2026-05-07 08:37 64.92223 -19.83911 21207 ft 263 kts 38°
2026-05-07 08:37 64.93591 -19.81047 21207 ft 263 kts 38°
2026-05-07 08:38 64.94957 -19.78177 21206 ft 263 kts 38°
2026-05-07 08:38 64.96323 -19.75304 21207 ft 263 kts 38°
2026-05-07 08:38 64.97686 -19.72436 21216 ft 263 kts 38°
2026-05-07 08:38 64.99051 -19.69555 21215 ft 263 kts 38°
2026-05-07 08:39 65.00413 -19.66684 21216 ft 263 kts 38°
2026-05-07 08:39 65.01778 -19.63799 21216 ft 263 kts 38°
2026-05-07 08:39 65.03138 -19.60919 21216 ft 262 kts 38°
2026-05-07 08:39 65.04482 -19.58070 21215 ft 262 kts 38°
2026-05-07 08:40 65.05839 -19.55188 21216 ft 262 kts 38°
2026-05-07 08:40 65.07198 -19.52300 21215 ft 262 kts 38°
2026-05-07 08:40 65.08553 -19.49416 21226 ft 262 kts 38°
2026-05-07 08:40 65.09906 -19.46530 21225 ft 262 kts 38°
2026-05-07 08:41 65.11260 -19.43639 21225 ft 262 kts 38°
2026-05-07 08:41 65.12616 -19.40741 21225 ft 262 kts 39°
2026-05-07 08:41 65.13968 -19.37845 21225 ft 262 kts 39°
2026-05-07 08:41 65.15319 -19.34949 21225 ft 262 kts 38°
2026-05-07 08:42 65.16673 -19.32041 21226 ft 262 kts 39°
2026-05-07 08:42 65.18026 -19.29132 21226 ft 262 kts 39°
2026-05-07 08:42 65.19378 -19.26218 21226 ft 262 kts 39°
2026-05-07 08:42 65.20729 -19.23305 21237 ft 262 kts 39°
2026-05-07 08:43 65.22080 -19.20390 21236 ft 262 kts 39°
2026-05-07 08:43 65.23429 -19.17471 21235 ft 262 kts 39°
2026-05-07 08:43 65.24779 -19.14546 21236 ft 262 kts 39°
2026-05-07 08:43 65.26129 -19.11617 21236 ft 262 kts 39°
2026-05-07 08:44 65.27477 -19.08687 21236 ft 262 kts 39°
2026-05-07 08:44 65.28826 -19.05755 21237 ft 263 kts 39°
2026-05-07 08:44 65.30177 -19.02812 21235 ft 263 kts 39°
2026-05-07 08:44 65.31529 -18.99862 21236 ft 263 kts 39°
2026-05-07 08:45 65.32879 -18.96911 21234 ft 263 kts 39°
2026-05-07 08:45 65.34230 -18.93956 21245 ft 263 kts 39°
2026-05-07 08:45 65.35579 -18.91001 21243 ft 263 kts 39°
2026-05-07 08:45 65.36923 -18.88050 21245 ft 262 kts 39°
2026-05-07 08:46 65.38268 -18.85097 21247 ft 262 kts 39°
2026-05-07 08:46 65.39613 -18.82136 21243 ft 262 kts 39°
2026-05-07 08:46 65.40954 -18.79179 21245 ft 262 kts 39°
2026-05-07 08:46 65.42298 -18.76210 21245 ft 262 kts 39°
2026-05-07 08:47 65.43641 -18.73242 21246 ft 262 kts 39°
2026-05-07 08:47 65.44985 -18.70270 21245 ft 263 kts 39°
2026-05-07 08:47 65.46329 -18.67290 21246 ft 263 kts 39°
2026-05-07 08:47 65.47689 -18.64270 20680 ft 268 kts 39°
2026-05-07 08:48 65.49065 -18.61207 20060 ft 270 kts 39°
2026-05-07 08:48 65.50445 -18.58133 19442 ft 271 kts 39°
2026-05-07 08:48 65.51826 -18.55049 18826 ft 270 kts 40°
2026-05-07 08:48 65.53206 -18.51971 18203 ft 269 kts 40°
2026-05-07 08:49 65.54559 -18.48946 17590 ft 268 kts 40°
2026-05-07 08:49 65.55921 -18.45890 17004 ft 266 kts 40°
2026-05-07 08:49 65.57264 -18.42874 16455 ft 263 kts 40°
2026-05-07 08:49 65.58606 -18.39863 15905 ft 263 kts 40°
2026-05-07 08:50 65.59946 -18.36850 15363 ft 263 kts 40°
2026-05-07 08:50 65.61282 -18.33838 14814 ft 262 kts 40°
2026-05-07 08:50 65.62613 -18.30836 14266 ft 261 kts 40°
2026-05-07 08:50 65.63929 -18.27859 13714 ft 258 kts 40°
2026-05-07 08:51 65.65234 -18.24904 13168 ft 256 kts 41°
2026-05-07 08:51 65.66533 -18.21962 12624 ft 255 kts 41°
2026-05-07 08:51 65.67827 -18.19025 12074 ft 254 kts 41°
2026-05-07 08:51 65.69109 -18.16109 11526 ft 252 kts 41°
2026-05-07 08:52 65.70384 -18.13206 10977 ft 251 kts 41°
2026-05-07 08:52 65.71650 -18.10320 10488 ft 247 kts 41°
2026-05-07 08:52 65.72896 -18.07472 10036 ft 244 kts 41°
2026-05-07 08:52 65.74128 -18.04660 9585 ft 242 kts 41°
2026-05-07 08:53 65.75349 -18.01864 9134 ft 241 kts 41°
2026-05-07 08:53 65.76495 -17.98944 8683 ft 238 kts 49°
2026-05-07 08:53 65.77535 -17.95822 8232 ft 237 kts 49°
2026-05-07 08:53 65.78574 -17.92712 7780 ft 236 kts 49°
2026-05-07 08:54 65.79598 -17.89669 7337 ft 234 kts 49°
2026-05-07 08:54 65.80643 -17.86576 6882 ft 233 kts 49°
2026-05-07 08:54 65.81651 -17.83564 6435 ft 231 kts 49°
2026-05-07 08:54 65.82661 -17.80536 6015 ft 229 kts 49°
2026-05-07 08:55 65.83672 -17.77514 5630 ft 224 kts 49°
2026-05-07 08:55 65.84641 -17.74618 5259 ft 223 kts 52°
2026-05-07 08:55 65.85612 -17.71698 4877 ft 219 kts 50°
2026-05-07 08:55 65.86582 -17.68793 4498 ft 223 kts 51°
2026-05-07 08:56 65.87565 -17.65836 4118 ft 224 kts 50°
2026-05-07 08:56 65.88543 -17.62893 3745 ft 222 kts 49°
2026-05-07 08:56 65.89506 -17.59988 3379 ft 218 kts 49°
2026-05-07 08:56 65.90455 -17.57123 3006 ft 216 kts 49°
2026-05-07 08:57 65.91395 -17.54282 2629 ft 214 kts 49°
2026-05-07 08:57 65.92330 -17.51450 2255 ft 214 kts 50°
2026-05-07 08:57 65.93263 -17.48623 1995 ft 212 kts 49°
2026-05-07 08:57 65.94175 -17.45860 1994 ft 206 kts 49°
2026-05-07 08:58 65.95066 -17.43146 1989 ft 202 kts 50°
2026-05-07 08:58 65.95500 -17.40047 2122 ft 197 kts 96°
2026-05-07 08:58 65.94788 -17.37226 1888 ft 205 kts 141°
2026-05-07 08:58 65.93438 -17.36400 1745 ft 205 kts 186°
2026-05-07 08:59 65.92236 -17.37630 1720 ft 178 kts 229°
2026-05-07 08:59 65.91862 -17.40107 1374 ft 145 kts 275°
2026-05-07 08:59 65.92255 -17.42154 989 ft 130 kts 321°
2026-05-07 08:59 65.93024 -17.43206 655 ft 127 kts 347°
2026-05-07 09:00 65.93911 -17.43202 269 ft 126 kts 10°
2026-05-07 09:00 65.94684 -17.42849 58 ft 99 kts 10°
2026-05-07 09:00 65.95230 -17.42595 52 ft 49 kts 10°
2026-05-07 09:00 65.95496 -17.42447 51 ft 26 kts 11°
2026-05-07 09:01 65.95599 -17.42221 50 ft 23 kts 98°
2026-05-07 09:01 65.95581 -17.42004 49 ft 13 kts 51°
2026-05-07 09:01 65.95613 -17.42011 48 ft 0 kts 223°